Wind_Speed
16 16 16 16 16 16 15 15 14 14 14 14 14 14 14 13 13 13 12 12 13 13 12 11 10 10 10 9 9 9 9 8 9 8 8 8 8 8 8 8 8 8 8
17 16 16 16 16 16 16 16 15 15 15 15 15 14 14 14 13 14 14 13 13 14 13 12 12 11 11 10 10 10 10 10 10 9 9 9 10 10 10 10 9 9 9
18 17 17 17 17 17 17 17 17 16 16 16 16 15 15 15 14 14 14 14 14 14 14 14 13 13 12 12 12 12 11 12 12 11 11 10 10 11 11 11 11 10 10
19 18 18 18 18 18 18 18 17 17 17 17 17 17 16 16 16 15 15 14 14 14 14 15 14 14 13 13 13 13 13 13 12 12 12 12 12 12 12 11 11 12 12
20 19 19 19 19 18 18 18 19 18 18 18 18 18 17 17 16 16 16 15 15 15 15 15 15 15 15 15 15 15 14 14 14 13 13 13 13 13 13 13 13 13 13
21 20 20 19 19 19 18 18 19 19 19 18 18 18 18 17 17 17 17 17 16 15 16 16 16 16 16 16 17 16 16 16 15 16 15 15 14 14 14 14 14 14 15
21 21 20 20 19 19 19 18 19 19 19 19 19 18 18 17 17 18 18 18 18 17 17 16 16 17 17 17 17 18 17 17 17 17 17 17 16 16 15 15 15 16 16
22 22 22 21 21 20 20 20 20 20 20 20 20 20 20 19 19 19 20 19 19 19 19 18 18 18 18 18 18 18 19 19 20 19 18 18 18 18 17 16 17 17 17
23 23 23 22 22 21 21 21 21 20 20 21 21 21 21 20 20 20 21 21 20 21 20 20 20 20 20 20 20 19 20 20 21 21 20 20 20 20 19 19 18 18 18
24 24 23 23 22 22 22 22 22 21 21 22 22 22 22 21 22 22 22 22 22 22 22 22 22 21 21 21 21 21 21 21 21 22 22 21 21 22 22 21 21 20 20
25 25 25 24 24 23 23 23 23 22 23 23 23 23 23 23 23 23 23 24 24 24 24 23 23 23 22 22 22 22 22 22 22 22 23 23 23 23 23 23 23 22 22
26 26 25 25 24 24 24 24 24 24 23 24 24 24 24 24 24 24 24 24 24 25 25 25 25 24 24 24 24 24 24 24 23 23 23 24 24 24 24 24 25 24 25
27 27 26 26 26 26 26 26 25 25 25 24 25 25 25 25 25 25 25 25 26 26 26 26 26 26 26 26 25 25 25 25 25 25 25 25 25 26 26 25 25 26 26
28 27 27 27 27 27 27 27 27 26 26 26 26 26 26 26 26 26 26 26 26 27 27 27 27 27 27 27 27 27 27 27 27 27 27 27 27 27 27 27 27 28 28
29 29 28 28 28 28 28 28 28 28 27 27 27 27 27 26 26 27 27 27 27 27 28 28 28 28 28 28 28 28 28 28 28 29 29 29 29 29 28 28 29 29 28
30 30 30 30 29 30 29 29 29 29 28 28 28 28 28 28 27 27 27 27 28 28 29 29 29 28 29 29 29 29 29 29 29 30 30 30 30 30 30 30 30 31 31
31 31 31 31 31 31 30 30 30 29 29 29 29 29 29 29 29 29 29 29 30 30 30 31 31 30 30 30 30 30 31 31 31 31 32 32 32 32 32 33 32 32 33
32 32 32 32 32 32 31 31 31 31 30 30 30 31 31 31 31 31 31 31 31 31 32 33 33 33 33 33 32 32 32 32 33 33 33 34 34 34 34 34 35 35 35
33 33 33 33 33 33 32 32 31 32 32 32 32 32 32 33 33 33 33 33 33 33 33 34 35 35 35 35 35 35 35 35 35 35 36 36 36 36 36 37 37 38 38
34 34 33 33 34 34 33 33 33 33 33 33 33 33 33 33 34 34 34 34 34 34 35 35 36 37 37 38 37 37 37 37 37 38 38 39 39 38 39 39 40 40 40
34 34 34 34 34 34 34 34 35 34 34 34 34 33 34 34 34 34 34 35 35 36 36 36 37 38 38 39 39 39 39 38 39 39 39 40 41 41 41 42 42 42 42
35 34 34 35 34 35 35 35 35 35 35 35 35 35 35 35 36 36 36 36 37 37 38 38 39 39 40 40 41 41 41 41 41 41 41 42 42 42 43 44 44 45 45
35 34 35 35 35 35 36 36 36 36 36 36 36 36 37 37 37 37 38 38 39 39 40 40 41 41 40 41 42 43 43 42 43 43 43 43 43 44 45 45 46 47 47
35 35 35 35 36 36 36 37 37 37 37 37 38 38 39 39 40 39 39 40 40 41 42 42 43 42 42 43 43 44 45 45 44 44 44 44 45 45 46 47 47 48 49
35 35 36 36 37 37 37 37 38 38 38 39 39 39 40 41 41 40 41 41 42 43 44 44 45 44 43 44 44 44 45 45 45 45 44 45 45 46 46 47 48 49 50
35 36 37 37 37 38 38 37 37 39 39 40 40 41 41 41 42 42 42 42 43 43 44 45 46 45 45 45 45 45 44 45 45 45 45 46 46 47 47 48 48 48 49
Wind_Direction
260 257 257 257 256 256 256 253 250 250 251 250 250 247 248 248 248 248 250 251 247 244 244 245 245 247 247 249 247 243 241 241 238 237 239 236 234 235 236 236 237 238 235
259 257 256 256 255 255 255 253 252 252 252 251 251 250 250 250 250 250 252 252 249 246 245 246 247 247 248 251 250 246 244 240 238 239 241 239 237 239 240 240 241 241 240
257 255 255 255 255 256 255 253 253 252 252 252 252 252 253 253 253 252 253 252 250 248 247 247 248 247 248 249 251 250 249 245 242 243 246 248 244 242 242 242 244 244 243
258 256 255 256 256 256 256 254 252 251 252 254 255 254 254 255 255 256 254 250 249 248 247 247 248 248 249 249 250 251 250 247 244 246 248 248 246 246 245 246 247 246 245
258 256 256 256 256 256 256 254 252 252 254 256 257 256 255 256 256 255 253 251 248 249 249 248 249 249 249 251 252 252 251 249 247 247 248 250 250 249 249 250 251 250 248
257 256 255 254 255 255 257 257 254 253 254 255 256 256 256 256 255 255 254 252 251 251 252 253 252 250 249 250 251 251 251 251 249 250 249 250 251 252 252 251 253 251 248
256 254 253 253 252 253 255 257 256 254 255 255 254 254 254 255 255 256 255 252 251 251 252 253 253 253 253 253 253 253 252 252 250 252 251 251 252 253 254 253 253 253 252
254 252 252 252 254 256 257 257 258 258 257 257 257 256 256 257 258 259 256 253 252 252 253 253 253 253 254 255 255 254 254 254 252 253 253 252 251 251 252 254 253 254 253
253 252 253 254 254 255 257 258 258 259 258 257 257 256 257 257 258 258 255 254 254 253 253 253 254 255 255 255 256 257 256 256 254 253 254 254 253 252 250 252 253 254 254
252 253 255 255 255 255 256 257 258 258 259 259 259 259 259 259 259 257 256 256 257 256 254 254 255 256 256 256 256 256 257 257 256 255 254 253 254 253 251 250 252 253 254
253 253 253 254 255 255 256 257 258 259 259 260 261 261 261 260 261 260 258 258 257 257 256 256 257 257 258 258 256 257 257 257 257 257 255 254 255 254 253 252 253 254 255
253 254 254 254 253 254 256 258 259 260 261 261 262 262 262 261 261 261 259 259 257 256 257 258 258 259 259 259 258 258 258 258 258 258 257 256 256 256 254 254 255 256 256
253 254 255 254 253 254 255 258 259 260 261 262 263 263 262 261 261 261 259 259 259 258 258 258 259 260 260 259 259 259 258 258 259 259 259 259 258 257 256 257 257 257 258
253 255 254 254 254 255 256 258 259 260 261 262 263 263 262 263 262 262 260 259 259 259 259 259 259 259 260 260 260 260 259 258 259 259 259 259 259 259 258 258 258 258 259
254 254 254 254 254 255 258 259 260 261 262 262 263 263 264 264 264 264 261 259 259 260 259 259 258 259 261 261 261 261 261 260 259 258 258 258 259 259 260 259 258 259 259
254 255 254 254 255 256 258 260 261 262 263 262 263 264 265 265 265 265 264 261 261 261 260 259 259 260 262 262 263 262 263 262 261 260 259 259 259 259 260 260 260 260 260
255 255 255 254 255 256 258 260 261 262 263 263 264 264 265 266 266 266 266 264 264 264 262 259 259 260 262 263 264 265 265 264 262 261 260 259 259 259 260 260 261 261 261
255 256 255 255 256 257 259 260 262 262 263 264 265 266 266 267 268 268 266 266 266 266 264 262 261 261 262 263 265 266 266 265 263 262 261 259 259 260 260 261 261 261 262
255 256 256 256 257 257 258 260 262 262 264 265 266 267 268 268 269 268 267 267 267 266 265 263 261 261 262 263 265 266 267 266 265 263 262 260 260 260 261 261 261 261 262
255 256 257 256 255 256 258 260 262 264 265 266 267 268 268 269 269 268 268 268 267 267 266 264 263 262 262 263 265 267 267 266 265 264 263 261 261 260 261 262 262 262 262
255 256 257 256 256 257 259 260 262 264 264 264 266 268 268 269 269 268 269 269 268 267 266 266 265 264 263 264 265 266 267 267 265 265 264 263 262 262 263 263 263 262 262
255 255 256 256 257 258 260 261 261 262 263 264 265 266 268 269 269 269 270 270 269 269 269 268 268 267 265 264 265 266 267 267 266 265 264 263 263 265 264 264 264 263 263
256 256 257 257 258 259 260 260 261 262 262 264 265 266 267 269 270 270 270 270 270 271 270 270 269 269 268 266 266 267 267 267 267 266 265 264 264 265 265 265 265 265 264
256 256 257 258 259 259 260 260 261 262 263 264 265 266 267 268 270 271 271 271 271 271 271 271 271 270 270 269 269 268 267 268 268 266 264 264 265 266 266 266 265 265 265
256 256 256 259 259 259 260 261 261 262 263 264 266 268 269 270 271 272 274 273 272 272 272 272 273 272 270 270 270 269 268 267 267 266 264 265 265 266 266 266 266 266 266
256 257 258 259 260 260 260 260 261 263 264 265 267 268 269 271 272 274 275 275 274 273 274 273 274 273 272 271 270 269 267 266 267 267 267 266 266 266 267 267 266 267 267
Height
5811 5812 5812 5813 5814 5815 5816 5816 5817 5818 5818 5819 5819 5820 5821 5822 5822 5823 5823 5824 5825 5826 5827 5828 5829 5830 5830 5831 5831 5832 5833 5834 5835 5836 5836 5837 5838 5839 5840 5841 5842 5843 5844
5808 5809 5809 5810 5811 5812 5813 5814 5815 5815 5816 5817 5817 5818 5818 5819 5820 5820 5821 5822 5823 5824 5825 5826 5827 5827 5828 5829 5830 5831 5831 5832 5833 5834 5835 5836 5837 5838 5839 5840 5841 5842 5842
5805 5806 5806 5807 5808 5809 5810 5811 5812 5813 5813 5814 5814 5815 5816 5816 5817 5818 5818 5819 5820 5821 5822 5823 5824 5825 5826 5827 5828 5829 5830 5830 5831 5832 5833 5834 5835 5836 5837 5838 5839 5840 5841
5801 5802 5803 5804 5805 5806 5806 5807 5808 5809 5810 5811 5812 5812 5813 5814 5814 5815 5816 5816 5818 5819 5820 5821 5822 5823 5823 5824 5826 5827 5827 5828 5829 5830 5832 5832 5833 5834 5835 5836 5837 5838 5839
5798 5799 5799 5800 5801 5802 5803 5804 5805 5806 5807 5808 5808 5809 5810 5811 5811 5812 5813 5814 5815 5816 5817 5818 5819 5820 5821 5822 5823 5824 5825 5826 5827 5828 5829 5830 5831 5832 5833 5834 5835 5836 5837
5794 5795 5796 5797 5798 5799 5800 5800 5801 5802 5803 5804 5805 5806 5806 5807 5808 5809 5810 5811 5812 5813 5814 5815 5816 5817 5818 5819 5820 5821 5822 5823 5824 5825 5827 5828 5829 5830 5830 5831 5832 5833 5834
5790 5791 5792 5793 5794 5795 5796 5797 5798 5798 5799 5801 5801 5802 5803 5804 5805 5806 5807 5808 5809 5810 5811 5812 5813 5814 5815 5815 5816 5817 5819 5820 5821 5822 5823 5825 5826 5827 5828 5828 5829 5830 5831
5786 5787 5788 5789 5790 5791 5792 5793 5794 5795 5796 5797 5797 5798 5799 5800 5801 5802 5803 5804 5805 5806 5807 5808 5809 5810 5811 5812 5813 5814 5815 5816 5817 5818 5820 5821 5822 5823 5824 5825 5826 5827 5828
5781 5782 5783 5784 5785 5787 5788 5789 5789 5790 5791 5792 5793 5794 5795 5796 5797 5798 5799 5800 5801 5802 5803 5804 5806 5806 5807 5808 5809 5810 5811 5812 5813 5814 5816 5817 5818 5819 5821 5821 5822 5823 5824
5776 5778 5779 5780 5781 5782 5783 5784 5785 5786 5787 5788 5788 5789 5790 5791 5792 5793 5794 5795 5796 5798 5799 5800 5801 5802 5803 5804 5805 5806 5807 5808 5809 5810 5811 5812 5814 5815 5816 5817 5818 5819 5820
5771 5773 5774 5775 5777 5778 5779 5779 5780 5781 5782 5783 5783 5784 5785 5786 5787 5788 5789 5790 5791 5793 5794 5795 5796 5797 5798 5799 5800 5801 5802 5803 5805 5806 5807 5808 5809 5810 5811 5813 5814 5815 5816
5766 5767 5769 5770 5772 5773 5774 5774 5775 5776 5777 5778 5778 5779 5780 5781 5782 5783 5784 5785 5786 5787 5788 5789 5791 5792 5793 5794 5795 5796 5797 5799 5800 5801 5802 5803 5804 5805 5806 5807 5809 5810 5811
5760 5762 5763 5765 5766 5767 5768 5769 5770 5771 5771 5772 5773 5773 5774 5775 5776 5777 5778 5779 5780 5781 5783 5784 5785 5786 5787 5788 5790 5791 5792 5793 5794 5795 5796 5797 5798 5799 5801 5802 5803 5804 5805
5754 5756 5757 5758 5760 5761 5762 5763 5764 5764 5765 5766 5767 5767 5768 5768 5769 5770 5771 5772 5774 5775 5776 5777 5778 5780 5781 5782 5783 5784 5786 5787 5788 5789 5790 5791 5793 5794 5795 5796 5797 5798 5799
5748 5749 5751 5752 5753 5755 5756 5756 5757 5758 5759 5760 5760 5761 5761 5762 5763 5764 5765 5766 5767 5768 5769 5771 5772 5773 5774 5776 5777 5778 5779 5780 5781 5782 5784 5785 5786 5787 5788 5790 5791 5792 5793
5741 5743 5744 5745 5747 5748 5749 5750 5751 5752 5752 5753 5753 5754 5755 5755 5756 5757 5757 5759 5760 5761 5762 5763 5765 5766 5768 5769 5770 5771 5772 5773 5774 5775 5776 5778 5779 5780 5781 5782 5784 5785 5786
5734 5735 5737 5738 5739 5741 5742 5743 5744 5744 5745 5746 5746 5747 5748 5748 5749 5750 5750 5751 5752 5753 5754 5756 5757 5759 5760 5761 5762 5763 5764 5765 5766 5767 5768 5770 5771 5772 5774 5775 5776 5777 5778
5726 5728 5729 5730 5732 5733 5734 5735 5736 5737 5738 5739 5739 5739 5740 5741 5741 5742 5742 5743 5744 5745 5746 5747 5749 5750 5752 5753 5754 5755 5756 5756 5758 5759 5760 5761 5763 5764 5765 5766 5767 5769 5770
5718 5720 5721 5723 5724 5725 5726 5727 5728 5729 5730 5731 5731 5732 5732 5732 5733 5733 5734 5735 5735 5736 5737 5738 5740 5741 5742 5744 5745 5746 5746 5747 5748 5749 5750 5752 5753 5755 5756 5757 5758 5760 5761
5710 5712 5713 5715 5716 5717 5718 5720 5721 5721 5722 5723 5723 5723 5724 5724 5724 5725 5725 5726 5726 5727 5728 5729 5730 5731 5732 5734 5735 5736 5736 5737 5738 5739 5740 5742 5743 5745 5746 5747 5749 5750 5751
5701 5703 5705 5706 5708 5709 5710 5712 5713 5713 5713 5714 5715 5715 5715 5716 5716 5716 5717 5717 5717 5718 5718 5719 5720 5721 5722 5723 5725 5726 5727 5727 5728 5729 5730 5731 5733 5734 5735 5737 5738 5739 5740
5693 5695 5696 5698 5699 5701 5702 5703 5704 5704 5705 5706 5706 5707 5707 5707 5708 5708 5708 5708 5708 5709 5709 5710 5710 5711 5712 5713 5714 5715 5716 5718 5718 5718 5719 5720 5722 5723 5724 5725 5726 5727 5729
5684 5686 5688 5689 5691 5692 5693 5694 5695 5695 5696 5697 5698 5699 5699 5699 5699 5699 5699 5699 5699 5699 5699 5699 5700 5701 5701 5702 5702 5703 5704 5706 5706 5707 5707 5708 5710 5711 5711 5713 5714 5715 5716
5675 5677 5679 5680 5681 5683 5684 5685 5686 5687 5688 5688 5689 5689 5690 5690 5689 5689 5689 5689 5689 5689 5689 5689 5689 5690 5690 5691 5691 5691 5692 5692 5693 5695 5696 5696 5697 5697 5698 5699 5700 5701 5702
5666 5668 5669 5671 5672 5673 5675 5676 5677 5677 5678 5679 5680 5680 5680 5680 5680 5680 5679 5679 5679 5679 5678 5678 5678 5678 5679 5679 5679 5679 5679 5680 5680 5681 5683 5685 5685 5685 5685 5686 5686 5687 5688
5657 5659 5660 5662 5663 5664 5665 5666 5667 5668 5669 5670 5670 5670 5670 5670 5670 5669 5669 5668 5668 5668 5668 5667 5667 5667 5666 5667 5667 5667 5667 5668 5669 5669 5671 5671 5672 5672 5672 5672 5673 5673 5674